Regional Weather Roundup
Issued by NWS Sioux Falls, SD

Home | Current Version | Previous Version | Text Only | Print | Product List | Glossary On
Versions: 1 2 3 4 5 6 7 8 9 10 11 12 13 14 15 16 17 18 19 20 21 22 23 24 25 26 27 28 29 30 31 32 33 34 35 36 37 38 39 40 41 42 43 44 45 46 47 48 49 50
000
ASUS43 KFSD 191710
RWRFSD

WEATHER ROUNDUP FOR SE SOUTH DAKOTA/SW MINNESOTA/NW IOWA
NATIONAL WEATHER SERVICE SIOUX FALLS SD
1100 AM CST SUN NOV 19 2017

NOTE: "FAIR" INDICATES FEW OR NO CLOUDS BELOW 12,000 FEET WITH NO
SIGNIFICANT WEATHER AND OR OBSTRUCTIONS TO VISIBILITY.


SDZ038>040-050-052>070-191800-
SOUTHEAST SOUTH DAKOTA

CITY           SKY/WX    TMP DP  RH WIND       PRES   REMARKS
BROOKINGS        N/A     40  26  57 MISG        N/A
CHAMBERLAIN    SUNNY     42  27  54 SW7       30.00F
HURON          SUNNY     41  28  60 S8        29.98F
MADISON        FAIR      37  27  65 W8        30.02F
MITCHELL       SUNNY     44  28  53 S8        30.02F
SIOUX FALLS    MOSUNNY   42  27  55 SW6       30.04F
WINNER         FAIR      45  26  47 SW10      30.00F
YANKTON        SUNNY     43  27  53 S3        30.07F
$$

MNZ071-072-080-081-089-090-097-098-191800-
SOUTHWEST MINNESOTA

CITY           SKY/WX    TMP DP  RH WIND       PRES   REMARKS
FAIRMONT       MOSUNNY   35  21  56 W15       30.06F WCI  25
JACKSON        SUNNY     37  21  52 SW12      30.04F
LUVERNE        SUNNY     36  23  60 SW7       30.05F
MARSHALL       SUNNY     41  24  51 W20G29    29.98F
MONTEVIDEO     SUNNY     37  27  65 W9        29.99S
PIPESTONE      SUNNY     36  25  64 W8        30.01F
REDWOOD FALLS  SUNNY     39  23  52 SW14      30.00F
TRACY          SUNNY     41  27  56 SW16      29.99F
WINDOM         SUNNY     37  19  48 SW12      30.03F
WORTHINGTON    SUNNY     37  23  56 SW17G23   30.04F
$$

IAZ001>003-012>014-020>022-031-032-NEZ013-014-SDZ071-191800-
NORTHWEST IOWA

CITY           SKY/WX    TMP DP  RH WIND       PRES   REMARKS
CHEROKEE       SUNNY     37  25  60 SW7       30.10F
DENISON        SUNNY     39  23  52 SW13G20   30.15F
ESTHERVILLE    MOSUNNY   34  22  61 SW14      30.06F WCI  25
LE MARS        SUNNY     39  28  65 S8        30.09F
ORANGE CITY    SUNNY     39  28  65 SW8       30.08F
SHELDON        SUNNY     37  25  60 SW9       30.06F
SIOUX CITY     SUNNY     40  28  62 S7        30.12F
SPENCER        SUNNY     38  22  52 SW13      30.08F
STORM LAKE     CLOUDY    37  21  52 SW16G23   30.09F
$$

ABBREVIATIONS USED IN REMARKS
   TC - TEMPERATURE IN CELSIUS
  WCI - WIND CHILL INDEX
   HX - HEAT INDEX
  VSB - VISIBILITY




USA.gov is the U.S. government's official web portal to all federal, state and local government web resources and services.